Louisville Bowman, KY

7:57 PM EDT on May 27, 2018 (GMT -0400)
Bowman

Weather History for KLOU - January, 2004

Change the Weather History Date:

Saturday, January 10, 2004

  Actual Average Record
Temperature  
Mean Temperature 21 °F 34 °F  
Max Temperature 26 °F 42 °F 66 °F (1975)
Min Temperature 16 °F 26 °F -11 °F (1982)
Degree Days  
Heating Degree Days 44 31  
Month to date heating degree days 304  
Since 1 July heating degree days 1968  
Cooling Degree Days 0 0  
Month to date cooling degree days 0  
Year to date cooling degree days 0  
Moisture  
Dew Point 10 °F    
Average Humidity 64    
Maximum Humidity 81    
Minimum Humidity 46    
Precipitation  
Precipitation 0.00 in 0.12 in 1.45 in (1975)
Month to date precipitation 1.20  
Year to date precipitation 1.20  
Sea Level Pressure  
Sea Level Pressure 30.48 in    
Wind  
Wind Speed 5 mph (ENE)    
Max Wind Speed 8 mph    
Max Gust Speed -    
Visibility 10 miles    
Events      
T = Trace of Precipitation, MM = Missing Value Source: NWS Daily Summary

Daily Weather History Graph

Daily Weather History Graph

Search for Another Location

Airport or City:

Astronomy

Jan. 10, 2004 Rise Set
Actual Time 7:59 AM EST 5:40 PM EST
Civil Twilight 7:30 AM EST 6:10 PM EST
Nautical Twilight 6:57 AM EST 6:42 PM EST
Astronomical Twilight 6:25 AM EST 7:14 PM EST
Moon 8:43 PM EST (1/10) 10:16 AM EST (1/10)
Length of Visible Light 10h 39m
Length of Day
9h 41m
Waning Gibbous, 91% of the Moon is Illuminated
Jan 10
Waning Gibbous
Jan 14
Last Quarter
Jan 21
New
Jan 29
First Quarter
Feb 6
Full

Hourly Weather History & Observations

Time (EST) Temp. Windchill Dew Point Humidity Pressure Visibility Wind Dir Wind Speed Gust Speed Precip Events Conditions
12:53 AM 23.0 °F 13.9 °F 14.0 °F 68% 30.43 in 10.0 mi NE 8.1 mph - N/A   Overcast
1:53 AM 21.9 °F 13.4 °F 14.0 °F 72% 30.44 in 10.0 mi NE 6.9 mph - N/A   Mostly Cloudy
2:53 AM 19.9 °F 12.1 °F 14.0 °F 78% 30.46 in 10.0 mi NNE 5.8 mph - N/A   Clear
3:53 AM 19.0 °F 12.3 °F 14.0 °F 81% 30.47 in 10.0 mi NNE 4.6 mph - N/A   Clear
4:53 AM 18.0 °F 11.1 °F 12.9 °F 81% 30.46 in 10.0 mi NE 4.6 mph - N/A   Partly Cloudy
5:39 AM 19.4 °F 10.4 °F 12.2 °F 74% 30.45 in 10.0 mi NE 6.9 mph - N/A   Mostly Cloudy
5:53 AM 19.0 °F 9.0 °F 10.9 °F 71% 30.47 in 10.0 mi NE 8.1 mph - N/A   Overcast
6:53 AM 17.1 °F 7.6 °F 10.0 °F 74% 30.49 in 10.0 mi NE 6.9 mph - N/A   Mostly Cloudy
7:14 AM 17.6 °F 9.3 °F 10.4 °F 73% 30.47 in 10.0 mi NE 5.8 mph - N/A   Scattered Clouds
7:53 AM 16.0 °F 8.8 °F 9.0 °F 74% 30.51 in 10.0 mi NE 4.6 mph - N/A   Scattered Clouds
8:53 AM 16.0 °F 8.8 °F 8.1 °F 71% 30.53 in 10.0 mi Variable 4.6 mph - N/A   Clear
9:53 AM 17.1 °F 10.0 °F 9.0 °F 71% 30.54 in 10.0 mi Variable 4.6 mph - N/A   Clear
10:53 AM 19.0 °F - 8.1 °F 62% 30.54 in 10.0 mi Calm Calm - N/A   Clear
11:53 AM 21.0 °F - 9.0 °F 60% 30.54 in 10.0 mi Calm Calm - N/A   Clear
12:53 PM 21.9 °F - 8.1 °F 55% 30.51 in 10.0 mi Calm Calm - N/A   Partly Cloudy
1:53 PM 23.0 °F - 7.0 °F 50% 30.50 in 10.0 mi Calm Calm - N/A   Partly Cloudy
2:53 PM 25.0 °F 20.7 °F 8.1 °F 49% 30.49 in 10.0 mi WSW 3.5 mph - N/A   Clear
3:53 PM 26.1 °F - 8.1 °F 47% 30.48 in 10.0 mi Calm Calm - N/A   Partly Cloudy
4:53 PM 26.1 °F - 8.1 °F 47% 30.48 in 10.0 mi Calm Calm - N/A   Clear
5:53 PM 25.0 °F 20.7 °F 7.0 °F 46% 30.47 in 10.0 mi SSE 3.5 mph - N/A   Clear
6:53 PM 24.1 °F 18.2 °F 10.0 °F 55% 30.49 in 10.0 mi SE 4.6 mph - N/A   Clear
7:53 PM 21.9 °F 15.7 °F 9.0 °F 58% 30.48 in 10.0 mi SSE 4.6 mph - N/A   Clear
8:53 PM 21.9 °F - 9.0 °F 58% 30.46 in 10.0 mi Calm Calm - N/A   Clear
9:53 PM 21.0 °F 16.2 °F 9.0 °F 60% 30.47 in 10.0 mi South 3.5 mph - N/A   Mostly Cloudy
10:53 PM 21.9 °F 15.7 °F 7.0 °F 53% 30.45 in 10.0 mi SSE 4.6 mph - N/A   Overcast
11:53 PM 21.9 °F 14.5 °F 10.9 °F 63% 30.44 in 10.0 mi South 5.8 mph - N/A   Overcast